[[{"header":{"parameterUnit":"m.s-1","parameterCategory":1,"la1":30.2991,"la2":30.254,"lo1":-89.0895,"lo2":-89.0444,"dy":0.0017,"dx":0.0017,"nx":28,"ny":28,"refTime":"2024-05-01T03:00:00:Z","depth":0,"parameterNumber":2,"parameterNumberName":"U-component_of_WINDS"},"data":[0,0,0,0,0,0,0,0,0,0,0,0,0,0,0,0,0,0,0,0,0,0,0,0,0,0,0,0,0,0,0,0,0,0,0,0,0,0,0,0,0,0,0,0,0,0,0,0,0,0,0,0,0,0,0,0,0,0,-1.9915,-1.9915,0,-1.9945,-1.9945,-1.9945,-1.9909,-1.9907,-1.9906,-1.9905,-1.9935,-1.9937,-1.9939,0,0,0,0,0,0,0,0,0,0,0,0,0,-1.9825,-1.9827,-1.9915,-1.9915,-1.9915,-1.9945,-1.9945,-1.9945,-1.9909,-1.9907,-1.9906,-1.9904,-1.9934,-1.9937,-1.9939,0,0,0,0,0,0,0,0,0,0,0,0,0,-1.9861,-1.9828,-1.9915,-1.9901,-1.99,-1.9945,-1.9945,-1.9946,-1.9909,-1.9907,-1.9905,-1.9903,-1.9933,-1.9936,-1.9939,-1.9999,0,0,-1.9949,-1.995,0,0,0,0,0,0,0,0,-1.9859,-1.9864,-1.9902,-1.9902,-1.9901,-1.9921,-1.9925,-1.9964,-1.991,-1.9906,-1.9905,-1.9902,-1.9932,-1.9935,-1.9945,-2.0001,-2.0002,-1.9949,-1.9951,-1.9952,-1.9953,0,0,0,0,0,0,0,-1.9856,-1.9863,-1.9926,-1.9903,-1.9902,-1.9893,-1.9896,-1.9932,-1.993,-1.9906,-1.9903,-1.9907,-1.9931,-1.9942,-1.9945,-2.0002,-1.9949,-1.9952,-1.9954,-1.9955,-2.0109,-2.0112,0,0,0,0,0,0,-1.9856,-1.9861,-1.9925,-1.9927,-1.9874,-1.9896,-1.9899,-1.9916,-1.9929,-1.9929,-1.9909,-1.9905,-1.9938,-1.9942,-1.9946,-2.0017,-1.9952,-1.9955,-1.9957,-2.0107,-2.011,-2.0112,0,0,0,0,0,0,-1.9854,-1.9862,-1.9924,-1.9893,-1.9901,-1.99,-1.9919,-1.9918,-1.9929,-1.9932,-1.9931,-1.9921,-1.9936,-1.9942,-1.9987,-2.0018,-1.9957,-1.9959,-2.0105,-2.0108,-2.0111,-2.016,0,0,0,0,0,0,-1.9851,-1.9861,-1.9884,-1.9894,-1.9902,-1.9964,-1.9921,-1.992,-1.9935,-1.993,-1.9942,-1.9943,-1.9935,-1.9982,-1.999,-2.0021,-1.9962,-2.0102,-2.0106,-2.011,-2.0156,-2.0165,-2.0172,0,0,0,0,0,-1.9848,-1.9896,-1.9885,-1.9893,-1.9931,-1.9966,-1.9971,-1.9961,-1.9937,-1.996,-1.9962,-1.9942,-2.0014,-1.9987,-1.9995,-2.0028,-2.01,-2.0105,-2.011,-2.0152,-2.0163,-2.0172,0,0,0,0,0,0,-1.9889,-1.9897,-1.9885,-1.9938,-1.9952,-1.996,-1.9988,-1.9973,-1.9994,-1.9989,-1.9976,-1.998,-2.0027,-2.0032,-2.0002,-2.0087,-2.0053,-2.006,-2.0082,-2.0092,-2.0101,-2.0098,-1.9964,0,0,0,0,0,-1.9904,-1.9932,-1.9938,-1.9984,-1.9991,-1.9989,-2.0004,-1.9996,-2.0009,-2.0015,-2.002,-2.0034,-2.0059,-2.0076,-2.01,-2.0157,-2.0159,-2.0183,-2.0192,-2.0199,-2.0204,-2.0235,-2.0246,-2.0129,-2.0129,-2.0129,0,0,-1.9936,-1.9944,-1.9962,-1.9992,-2.0002,-2.0031,-1.9994,-2.0026,-2.0048,-2.0019,-2.0062,-2.0066,-2.0081,-2.0132,-2.0155,-2.0138,-2.0238,-2.0205,-2.021,-2.0213,-2.0242,-2.0253,-2.0263,-2.0132,-2.0132,-2.0131,0,0,-2.0008,-2.0017,-2.0056,-2.0067,-2.0082,-2.008,-2.009,-2.0101,-2.0103,-2.0145,-2.0125,-2.0151,-2.0195,-2.0206,-2.0218,-2.0296,-2.0279,-2.0304,-2.0348,-2.0378,-2.0387,-2.0395,-2.0423,-2.0433,-2.031,-2.031,-2.0311,0,-2.0045,-2.0088,-2.0078,-2.0112,-2.0126,-2.0103,-2.0143,-2.0154,-2.0176,-2.0186,-2.0167,-2.0223,-2.0231,-2.0284,-2.0304,-2.0314,-2.0325,-2.0302,-2.0387,-2.0395,-2.0402,-2.0429,-2.0439,-2.0313,-2.0313,-2.0313,-2.0312,0,-2.0133,-2.0163,-2.0193,-2.0216,-2.0234,-2.0271,-2.0266,-2.0285,-2.0276,-2.0276,-2.032,-2.033,-2.0355,-2.0367,-2.0358,-2.042,-2.0409,-2.0389,-2.0354,-2.0417,-2.0441,-2.0451,-2.0318,-2.0317,-2.0316,-2.0315,0,0,-2.023,-2.0248,-2.0259,-2.0269,-2.0285,-2.0309,-2.0345,-2.037,-2.0387,-2.0403,-2.0433,-2.0472,-2.0453,-2.0467,-2.0459,-2.0486,-2.0547,-2.0462,-2.0462,-2.0477,-2.0616,-2.0631,-2.0643,-2.0536,-2.0538,-2.054,-2.0615,0,-2.0302,-2.0365,-2.0358,-2.0418,-2.0446,-2.0425,-2.0456,-2.047,-2.0471,-2.0496,-2.0497,-2.0525,-2.0498,-2.0506,-2.0532,-2.0534,-2.0575,-2.0529,-2.0564,-2.0565,-2.056,-2.0656,-2.0671,-2.0742,-2.0624,-2.0626,-2.0627,0,-2.0394,-2.0415,-2.0478,-2.049,-2.0502,-2.053,-2.0553,-2.0577,-2.0592,-2.0591,-2.0607,-2.0595,-2.0631,-2.0597,-2.0647,-2.0616,-2.063,-2.0634,-2.0636,-2.0638,-2.0599,-2.066,-2.0764,-2.0774,-2.0642,-2.0641,-2.064,0,-2.0459,-2.0502,-2.0546,-2.0555,-2.0571,-2.0591,-2.0599,-2.0612,-2.0628,-2.0648,-2.0658,-2.0683,-2.0696,-2.0715,-2.071,-2.0685,-2.0761,-2.0726,-2.0762,-2.0762,-2.0778,-2.0777,-2.0885,-2.0788,-2.0788,-2.0788,-2.0788,0,-2.054,-2.0579,-2.0575,-2.0601,-2.0645,-2.0637,-2.068,-2.0685,-2.0697,-2.0724,-2.0708,-2.0734,-2.0726,-2.0751,-2.0748,-2.079,-2.0796,-2.0797,-2.0795,-2.0798,-2.0798,-2.0806,-2.0801,-2.0791,-2.079,-2.0789,-2.0789,0,-2.0619,-2.0617,-2.0663,-2.0675,-2.0679,-2.071,-2.072,-2.0745,-2.0746,-2.0781,-2.0789,-2.079,-2.0819,-2.0817,-2.085,-2.0847,-2.09,-2.0892,-2.0895,-2.0893,-2.0928,-2.0925,-2.1045,-2.106,-2.0954,-2.0955,-2.0956,0,-2.067,-2.07,-2.0715,-2.0732,-2.0741,-2.0769,-2.0785,-2.0779,-2.0797,-2.0817,-2.084,-2.0868,-2.089,-2.0938,-2.0942,-2.0967,-2.096,-2.1001,-2.0964,-2.0966,-2.096,-2.0959,-2.0961,-2.1008,-2.1009,-2.101,-2.1011,0,-2.0761,-2.0759,-2.0784,-2.0809,-2.0829,-2.0848,-2.0865,-2.088,-2.0875,-2.0896,-2.0926,-2.0944,-2.0978,-2.1006,-2.103,-2.1038,-2.1024,-2.1022,-2.1032,-2.1035,-2.1034,-2.1035,-2.0914,-2.1019,-2.1018,-2.1018,-2.1017,-2.1017,-2.0827,-2.0853,-2.0868,-2.0896,-2.0909,-2.0925,-2.095,-2.0954,-2.0979,-2.1007,-2.1002,-2.1036,-2.1051,-2.1082,-2.1092,-2.1119,-2.1104,-2.1118,-2.1121,-2.1125,-2.1129,-2.1031,-2.1123,-2.1123,-2.1123,-2.1123,-2.1122,0,-2.0918,-2.0926,-2.0952,-2.0977,-2.1,-2.0985,-2.1004,-2.1023,-2.1053,-2.1069,-2.1091,-2.1126,-2.1154,-2.1161,-2.1187,-2.1207,-2.1201,-2.1214,-2.1212,-2.1214,-2.114,-2.1129,-2.1219,-2.1219,-2.1219,-2.1219,-2.1219,-2.1219,-2.0967,-2.101,-2.101,-2.1059,-2.1068,-2.1101,-2.1113,-2.1129,-2.1141,-2.1181,-2.1204,-2.1209,-2.1221,-2.1248,-2.1273,-2.1274,-2.1284,-2.13,-2.1299,-2.1229,-2.122,-2.121,-2.12,-2.1303,-2.1303,-2.137,-2.1371,-2.1372]},{"header":{"parameterUnit":"m.s-1","parameterCategory":1,"la1":30.2991,"la2":30.254,"lo1":-89.0895,"lo2":-89.0444,"dy":0.0017,"dx":0.0017,"nx":28,"ny":28,"refTime":"2024-05-01T03:00:00:Z","depth":0,"parameterNumber":3,"parameterNumberName":"V-component_of_WINDS"},"data":[0,0,0,0,0,0,0,0,0,0,0,0,0,0,0,0,0,0,0,0,0,0,0,0,0,0,0,0,0,0,0,0,0,0,0,0,0,0,0,0,0,0,0,0,0,0,0,0,0,0,0,0,0,0,0,0,0,0,0.8529,0.8529,0,0.8564,0.8564,0.8565,0.8594,0.8595,0.8595,0.8595,0.863,0.863,0.8631,0,0,0,0,0,0,0,0,0,0,0,0,0,0.8486,0.8487,0.8529,0.8529,0.853,0.8564,0.8564,0.8565,0.8594,0.8595,0.8595,0.8595,0.863,0.863,0.8631,0,0,0,0,0,0,0,0,0,0,0,0,0,0.8511,0.8487,0.8529,0.8548,0.8551,0.8564,0.8564,0.8565,0.8594,0.8595,0.8595,0.8596,0.8629,0.863,0.8631,0.8627,0,0,0.8634,0.8634,0,0,0,0,0,0,0,0,0.851,0.8513,0.8545,0.8547,0.855,0.8575,0.8562,0.8586,0.8594,0.8578,0.8595,0.8596,0.8611,0.8614,0.8619,0.8629,0.863,0.8634,0.8635,0.8635,0.8635,0,0,0,0,0,0,0,0.8508,0.8511,0.8543,0.8545,0.8548,0.8555,0.8559,0.8567,0.8591,0.8579,0.8581,0.8585,0.8612,0.8618,0.862,0.8631,0.8634,0.8635,0.8635,0.8636,0.864,0.864,0,0,0,0,0,0,0.8503,0.851,0.8542,0.8544,0.853,0.8556,0.856,0.8567,0.8591,0.8595,0.8585,0.8586,0.8616,0.8619,0.8621,0.8619,0.8635,0.8636,0.8636,0.864,0.864,0.8639,0,0,0,0,0,0,0.8502,0.8506,0.854,0.8527,0.8532,0.8556,0.8563,0.8567,0.8573,0.8596,0.86,0.8586,0.8617,0.862,0.8626,0.8621,0.8636,0.8637,0.8641,0.864,0.864,0.8613,0,0,0,0,0,0,0.8501,0.8505,0.8504,0.8527,0.8533,0.8544,0.8562,0.8567,0.8574,0.8577,0.8598,0.8602,0.8617,0.8624,0.8627,0.8622,0.8638,0.8641,0.8641,0.864,0.8615,0.8612,0.8609,0,0,0,0,0,0.8499,0.8495,0.8504,0.8507,0.8532,0.8544,0.8547,0.8565,0.8574,0.8573,0.8588,0.8601,0.8621,0.8625,0.8628,0.8623,0.8642,0.8641,0.864,0.8616,0.8613,0.861,0,0,0,0,0,0,0.8469,0.8498,0.8508,0.8511,0.8525,0.8549,0.8548,0.8561,0.8572,0.8574,0.8596,0.86,0.8604,0.8614,0.8618,0.8621,0.8633,0.8633,0.8614,0.8611,0.8608,0.8605,0.8639,0,0,0,0,0,0.8463,0.8471,0.8495,0.8495,0.8502,0.8523,0.8529,0.8543,0.8557,0.8563,0.8578,0.8592,0.8601,0.8607,0.8616,0.8617,0.8622,0.8615,0.8613,0.861,0.8609,0.8611,0.8609,0.8636,0.8636,0.8636,0,0,0.845,0.8467,0.847,0.849,0.8502,0.8509,0.8528,0.8534,0.854,0.8564,0.857,0.8582,0.8599,0.8602,0.8604,0.8611,0.8603,0.8609,0.8607,0.8607,0.861,0.8607,0.8605,0.8635,0.8636,0.8636,0,0,0.843,0.8443,0.8445,0.8458,0.8476,0.8491,0.8491,0.8514,0.8523,0.853,0.8548,0.8555,0.857,0.8582,0.859,0.8576,0.8589,0.8578,0.8564,0.8565,0.8563,0.8561,0.8556,0.8554,0.8577,0.8577,0.8577,0,0.8411,0.8423,0.8444,0.845,0.8459,0.8482,0.8484,0.8495,0.8515,0.852,0.8528,0.8548,0.8561,0.8568,0.8565,0.857,0.8571,0.8576,0.8562,0.856,0.8559,0.8554,0.8553,0.8576,0.8576,0.8576,0.8576,0,0.84,0.8408,0.8407,0.8427,0.8436,0.8439,0.8461,0.8467,0.848,0.8494,0.8502,0.8518,0.8532,0.8535,0.8547,0.8543,0.8547,0.8558,0.857,0.8554,0.8551,0.8549,0.8574,0.8575,0.8575,0.8575,0,0,0.836,0.8394,0.8393,0.8403,0.8426,0.8432,0.8438,0.8452,0.8457,0.8471,0.8476,0.8489,0.85,0.8509,0.8523,0.8524,0.8512,0.8535,0.8536,0.853,0.851,0.8501,0.8499,0.8522,0.8521,0.8521,0.8508,0,0.8344,0.8355,0.8375,0.838,0.8388,0.8411,0.8415,0.843,0.8443,0.8452,0.8467,0.8476,0.849,0.8495,0.8498,0.8513,0.8508,0.8514,0.8526,0.8526,0.8521,0.8497,0.8488,0.8475,0.8507,0.8507,0.8507,0,0.8326,0.8339,0.8345,0.8369,0.8373,0.8377,0.8392,0.84,0.8417,0.8427,0.8438,0.8454,0.8461,0.8473,0.8483,0.8486,0.8493,0.8501,0.8501,0.8502,0.8515,0.8497,0.8471,0.8469,0.8505,0.8505,0.8505,0,0.8297,0.8316,0.8323,0.833,0.8358,0.836,0.8372,0.839,0.8398,0.8411,0.8417,0.843,0.8438,0.8448,0.8467,0.8474,0.8475,0.8489,0.8484,0.8483,0.8482,0.8482,0.8456,0.8487,0.8487,0.8487,0.8487,0,0.8276,0.8279,0.831,0.8314,0.8318,0.8341,0.8344,0.8358,0.8374,0.838,0.8401,0.8407,0.8432,0.8441,0.8456,0.8462,0.8465,0.8474,0.8477,0.8472,0.847,0.8475,0.8477,0.8486,0.8486,0.8486,0.8487,0,0.8244,0.8265,0.8273,0.8299,0.8306,0.8308,0.833,0.8334,0.835,0.8358,0.8362,0.8386,0.8398,0.8418,0.8435,0.8446,0.8449,0.8456,0.8443,0.8445,0.8439,0.8439,0.8415,0.8413,0.8445,0.8445,0.8444,0,0.8229,0.8232,0.8258,0.8265,0.8276,0.8286,0.8294,0.8318,0.8326,0.8347,0.8349,0.8362,0.8374,0.8392,0.8411,0.8424,0.8431,0.8422,0.8433,0.8428,0.8431,0.8431,0.8431,0.8419,0.8419,0.8418,0.8418,0,0.82,0.8211,0.8223,0.8239,0.8249,0.8262,0.8276,0.828,0.8307,0.8315,0.8327,0.8337,0.8355,0.8368,0.8385,0.8397,0.8412,0.8415,0.8414,0.8408,0.84,0.8404,0.8436,0.8415,0.8415,0.8415,0.8416,0.8416,0.8176,0.818,0.82,0.8213,0.8226,0.824,0.8246,0.8262,0.8274,0.8291,0.8304,0.8316,0.8334,0.8358,0.8369,0.8379,0.8386,0.8385,0.8385,0.8384,0.8382,0.8399,0.8382,0.8382,0.8382,0.8382,0.8382,0,0.8149,0.8163,0.8175,0.8195,0.8205,0.822,0.8237,0.8244,0.8254,0.827,0.8282,0.8297,0.8311,0.8331,0.8346,0.835,0.8357,0.8353,0.8352,0.8355,0.8375,0.8374,0.8347,0.8347,0.8347,0.8347,0.8347,0.8347,0.8136,0.8144,0.8157,0.8171,0.8186,0.8198,0.8207,0.8219,0.8232,0.8248,0.826,0.8273,0.8292,0.8308,0.8321,0.8327,0.8331,0.8325,0.8333,0.835,0.8354,0.8357,0.8356,0.8326,0.8326,0.8312,0.8312,0.8312]}]]